User: anonymous   Login
Location: Bergnershof
(48.9468°N, 10.9431°E)
Time: 11:26:52
(UTC+00:00)
Language:

SJ-6B - Orbit

View from above orbital plane
View from above orbital plane
View from above satellite
View from above satellite

Ground track
Ground track

The orbit data is extracted from the following two-line orbital elements,

1 28415U 04035C   21133.37797330  .00000261  00000-0  21242-4 0  9995
2 28415  97.5682 176.4968 0049938 308.1511  51.5222 15.07105464913320
Epoch (UTC): 13 May 2021 09:04:16
Eccentricity: 0.0049938
inclination: 97.5682°
perigee height: 510 km
apogee height: 579 km
right ascension of ascending node: 176.4968°
argument of perigee: 308.1511°
revolutions per day: 15.07105464
mean anomaly at epoch: 51.5222°
orbit number at epoch: 91332

The dashed part of the orbit path shows where the satellite is in the earth's shadow,  

DLR